Погода в Верхоянске

Погода в Верхоянске : погода сейчас, прогноз погоды и архив. Всё, что Вы хотите узнать о погоде в Верхоянске!

Хотите узнать прогноз погоды в Верхоянске? Тогда Вам сюда: Погода в Верхоянске

Поиск расширенной информации на нашем сайте:

Другие новости

Новости СМИ2

Главная страница сайта

Новости сайта

03.07.2017

Напоминаем, что на нашем специализированном сайте Метеоцентр.Азия вы можете получить высокодетализированные автоматические прогнозы погоды по пунктам России, СНГ и мира в авиационном формате (включающие направление и скорость ветра, видимость, явления погоды, количество и форму облачности, нижнюю и верхнюю границу облачности).

Рекомендуем: Актуальная информация спортивный уголок трансформер на сайте.

Погода в Верхоянске - сегодня

Время (UTC), дата Ветер
(°,м/с) 
Видим.   Явления Облачность Т
(°С)
Тd
(°С)
f(%) Тe
(°С)
Pmin
(гПа)
dP
(гПа)
Po
(мм)
O2
(г/м3)
Тmin Tmax R s Состояние
почвы
06 20.02.18 040 (СВ) 20000 м    ясно 
-34.9 -38.1 73 -39  1013.3  -1.4  745  346           
09 20.02.18 тихо ()   20000 м    ясно 
-37.9 -40.8 74 -38  1012.7  -0.9  745  350    -33  0.2     
12 20.02.18 070 (В) 20000 м    ясно 
-41.4 -44.3 74 -43  1012.4  -0.5  744  356           
15 20.02.18 тихо ()   20000 м    ясно 
-42.8 -45.6 74 -43  1011.3  -1.2  743  357           
18 20.02.18 тихо ()   20000 м    ясно 
-43.5 -46.2 74 -44  1010.7  -0.7  743  358           
21 20.02.18 тихо ()   20000 м    1/0 средняя 
[Ac trans]
-44 -46.7 74 -44  1010.6  -0.1  743  359  -44      37  равномерный
сухой снег
100% 
03 21.02.18 190 (Ю) 20000 м    ясно 
-36.9 -40.1 72 -38  1011.1  0.1  743  348           
06 21.02.18 100 (В) 20000 м    3/0 
-31.9 -35.7 69 -33  1011.5  0.8  744  341           
09 21.02.18 тихо ()   20000 м    ясно 
-37.4 -40.6 72 -37  1014.1  2.1  746  350    -31.4       
12 21.02.18 тихо ()   20000 м    ясно 
-41.4 -44.5 72 -41  1016.1  1.6  747  357           
15 21.02.18 тихо ()   20000 м    ясно 
-43.2 -46.2 72 -43  1017.8  1.6  748  360           
18 21.02.18 тихо ()   20000 м    ясно 
-43.8 -46.8 72 -44  1019.7  1.7  749  362           
03 22.02.18 260 (З) 20000 м    ясно 
-38 -41.2 72 -39  1024  1.1  753  354           
06 22.02.18 230 (ЮЗ) 20000 м    ясно 
-33.4 -37.2 69 -34  1024.5  0.9  754  348           
09 22.02.18 260 (З) 20000 м    ясно 
-35.4 -38.4 74 -40  1026.2  1.6  755  351    -32.4       
12 22.02.18 тихо ()   20000 м    ясно 
-41.8 -44.8 73 -42  1028.8  1.9  756  362           
15 22.02.18 тихо ()   20000 м    ясно 
-43.7 -46.5 73 -44  1030.3  1.3  757  365           
18 22.02.18 тихо ()   20000 м    ясно 
-44.6 -47.4 73 -45  1032  1.6  758  367           
03 23.02.18 тихо ()   20000 м    10/0 средняя, верхняя 
[Ac trans|Cs]
-37.4 -40.6 72 -37  1035.2  0.5  761  357           
06 23.02.18 тихо ()   20000 м    10/0 средняя, верхняя 
[Ac trans|Cs]
-33.9 -37.2 72 -34  1035.4  0.5  762  352           
12 23.02.18 тихо ()   10 км  слаб. снег  10/0 средняя, верхняя 
[Ac trans|Cs]
-32 -35.1 74 -32  1037  0.9  763  350           
15 23.02.18 040 (СВ) 10 км  слаб. снег  10/0 средняя, верхняя 
[Ac trans|Cs]
-32.4 -35.5 74 -33  1037  763  351           
18 23.02.18 тихо ()   10 км  слаб. снег  10/0 средняя, верхняя 
[Ac trans|Cs]
-33.9 -36.8 75 -34  1037.1  763  353           
00 24.02.18 тихо ()   20000 м  слаб. снег  10/0 верхняя 
[Cs]
-34 -36.9 75 -34  1037.4  -0.1  763  353  -36.5         
03 24.02.18 040 (СВ) 20000 м  {снег}  1/0 верхняя 
[Ci fib]
-30.6 -34.1 71 -31  1037.1  -0.1  763  348           
Время (UTC), дата Ветер
(°,м/с) 
Видим.   Явления Облачность Т
(°С)
Тd
(°С)
f(%) Тe
(°С)
Pmin
(гПа)
dP
(гПа)
Po
(мм)
O2
(г/м3)
Тmin Tmax R s Состояние
почвы

Для получения пояснительной информации подведите курсор к названию столбца.

ПОГОДА в Верхоянске - архив

Всё, что Вы хотите узнать о погоде в Верхоянске - удобно и подробно!

Выберите нужную дату (начиная с 1 января 2015* года) и нажмите кнопку "Найти".
Будут отображены архивные сводки погоды по пункту Верхоянск, начиная с указанной даты.


Отображать данные в формате CSV (для использования в таблицах Excel)


Внимание! Наш архив погоды предназначен исключительно для личного некоммерческого использования в познавательных целях. Если Вам необходимы официальные справки о состоянии погоды (для производственных, юридических, коммерческих и т.п. целей), обращайтесь в органы Росгидромета.

*Примечание: данная дата относится к архиву по метеостанциям СССР (Россия, СНГ, Балтия).
Архив по метеостанциям Зарубежной Европы и Азии (кроме Китая) хранится 10 дней, по другим регионам земного шара (Китай, Африка, Америка, Австралия, Океания) - 1 день.

Верхоянск - район местоположения метеостанции


Название, широта, долгота, высота метеостанции:
Верхоянск 67.6°ш. 133.4°д. 137 м над ур. моря [Российская Федерация]

Дополнительная информация

В oтличие oт бoльшинства пoгoдных сайтoв мы публикуем пoдрoбную метеoинфoрмацию в детальнoм прoфессиoнальнoм фoрмате.

Характеристики температуры и влажнoсти вoздуха измеряются на высoте 2 м в тени вдали oт зданий и деревьев.
Скoрoсть ветра измеряется на высoте 10 м (на урoвне рoста челoвека скoрoсть ветра ниже в 1.5-2 раза). Если метеoстанция нахoдится в гoрoде или в лесу, тo скoрoсть ветра занижена на 2-4 м/с пo сравнению с oткрытым местoм. Скoрoсть ветра над акватoриями крупных рек и oзёр, а также на вершинах хoлмoв на 2-5 м/с выше, чем в oбычных услoвиях.
Атмoсфернoе давление в разных тoчках местнoсти мoжет значительнo oтличаться oт давления на метеoстанции, в зависимoсти oт услoвий рельефа (при пoдъёме на 10 м давление пoнижается примернo на 1 мм рт.ст.).